This is the latest recevied weather packets stored in our database for station/object W1QED. If no packets are shown the sender has not sent any weather packets the latest 10 day(s).
| Time | Temp. | Humidity | Pressure | Rain* | Wind** | Luminosity | Snow |
|---|---|---|---|---|---|---|---|
| 1777908647 | 17.22° C | 30% | 1009.1 hPa | 0 mm | - | - | - |
| 1777908344 | 17.22° C | 28% | 1009.1 hPa | 0 mm | - | - | - |
| 1777908044 | 16.67° C | 28% | 1009.1 hPa | 0 mm | - | - | - |
| 1777907741 | 16.67° C | 31% | 1009.3 hPa | 0 mm | - | - | - |
| 1777907438 | 16.11° C | 29% | 1009.4 hPa | 0 mm | - | - | - |
| 1777907138 | 16.11° C | 30% | 1009.4 hPa | 0 mm | - | - | - |
| 1777906836 | 16.11° C | 31% | 1009.4 hPa | 0 mm | - | - | - |
| 1777906536 | 15.56° C | 29% | 1009.6 hPa | 0 mm | - | - | - |
| 1777906235 | 15.56° C | 31% | 1009.6 hPa | 0 mm | - | - | - |
| 1777905934 | 16.11° C | 31% | 1009.6 hPa | 0 mm | - | - | - |
| 1777905632 | 15.56° C | 30% | 1009.5 hPa | 0 mm | - | - | - |
| 1777905331 | 16.11° C | 30% | 1009.7 hPa | 0 mm | - | - | - |
| 1777905034 | 15.56° C | 31% | 1009.8 hPa | 0 mm | - | - | - |
| 1777904730 | 15.56° C | 30% | 1009.6 hPa | 0 mm | - | - | - |
| 1777904428 | 15.56° C | 31% | 1009.7 hPa | 0 mm | - | - | - |
| 1777904130 | 15.56° C | 31% | 1009.7 hPa | 0 mm | - | - | - |
| 1777903825 | 15.56° C | 32% | 1009.6 hPa | 0 mm | - | - | - |
| 1777903525 | 15° C | 33% | 1009.7 hPa | 0 mm | - | - | - |
| 1777903228 | 15° C | 35% | 1009.8 hPa | 0 mm | - | - | - |
| 1777902922 | 15° C | 33% | 1009.8 hPa | 0 mm | - | - | - |
| 1777902620 | 15° C | 32% | 1009.8 hPa | 0 mm | - | - | - |
| 1777902321 | 15° C | 33% | 1009.8 hPa | 0 mm | - | - | - |
| 1777902017 | 14.44° C | 34% | 1010 hPa | 0 mm | - | - | - |
| 1777901717 | 14.44° C | 34% | 1010 hPa | 0 mm | - | - | - |
| 1777901416 | 14.44° C | 34% | 1010 hPa | 0 mm | - | - | - |
* Rain latest hour (hover to see other rain measurements)
** Current wind speed in m/s (hover to see current wind gust speed)